SCP
0 0 0 0 0 0 0 0 0 0 0 0 0 0 0 -0 0 0 0 0 0 0 0 0 0 0 0 0 0 0 0 0 0 0 0 0 0 0 0 0 0 0 0 0 0 0 0 0 0 0 0 0 0 0
0 0 0 0 0 0 0 0 0 0 0 0 0 0 -0 -0 0 0 0 0 -0 0 0 0 0 0 0 0 0 0 0 0 0 0 0 0 0 0 0 0 0 0 0 0 0 0 0 0 0 0 0 0 0 0
0 0 0 0 0 0 0 0 0 0 0 -0 0 0 -0 0 0 0 -0 0 -0 0 -0 0 0 0 0 0 0 0 0 0 0 0 0 0 0 0 0 0 0 0 0 0 0 0 0 0 0 0 0 0 0 0
0 0 0 0 0 0 0 0 0 -0 -0 -0 -0 0 -0 -0 -0 -0 -0 0 0 0 0 0 0 0 0 0 0 0 0 0 0 0 0 0 0 0 0 0 0 0 0 0 0 0 0 0 0 0 0 0 0 0
0 0 0 0 0 0 0 0 0 0 0 -0 -0 -0 -0 -0 -0 -0 -0 -0 0 0 0 0 0 0 0 0 0 0 0 0 0 0 0 0 0 0 0 0 0 0 0 0 0 0 0 0 0 0 0 0 0 0
0 0 0 0 0 0 0 0 0 -0 -0 -0 -0 -0 -0 -0 -0 -0 -0 0 -0 0 0 0 0 0 0 0 0 0 0 0 0 0 0 0 0 0 0 0 0 0 0 0 0 0 0 0 0 0 0 0 0 0
0 0 0 0 0 0 -0 -0 -0 -0 -0 -0 -0 -0 -0 -0 -0 0 0 -0 0 0 0 0 0 0 0 0 0 0 0 0 0 0 0 0 0 0 0 0 0 0 0 0 0 0 0 0 0 0 0 0 0 0
0 0 0 0 0 0 0 -0 -0 -0 -0 -0 -0 -0 -0 -0 -0 0 0 0 0 0 0 0 0 0 0 0 0 0 0 0 0 0 0 0 0 0 0 0 0 0 0 0 0 0 0 0 0 0 0 0 0 0
0 -0 -0 0 0 0 -0 -0 -0 -0 -0 -0 -0 -0 0 0 0 0 0 0 0 0 0 0 0 0 0 0 0 0 0 0 0 0 0 0 0 0 0 0 0 0 0 0 0 0 0 0 0 0 0 0 0 0
-0 -0 -0 -0 -0 -0 -0 -0 -0 -0 -0 -0 0 -0 0 -0 -0 0 0 0 0 0 0 0 0 0 0 0 0 0 0 0 0 0 0 0 0 0 0 0 0 0 0 0 0 0 0 0 0 0 0 0 0 0
-0 -0 -0 -0 -0 -0 -0 -0 -0 -0 -0 -0 -0 -0 -0 -0 0 0 0 0 0 0 0 0 0 0 0 0 0 0 0 0 0 0 0 0 0 0 0 -0 0 0 0 0 0 0 0 0 0 0 0 0 0 0
-0 -0 -0 -0 -0 -0 -0 -0 -0 0 0 -0 -0 -0 0 0 0 0 0 0 0 0 0 0 0 0 0 0 0 0 0 0 0 0 0 0 0 0 -0 0 0 0 0 0 0 0 0 0 0 0 0 0 0 0
-0 0 -0 0 -0 -0 -0 -0 -0 -0 -0 -0 -0 0 0 0 0 0 0 0 0 0 0 0 0 0 0 0 0 0 0 0 0 0 0 0 0 0 0 -0 -0 0 -0 -0 -0 -0 -0 0 0 -0 -0 0 0 0
-0 -0 -0 -0 -0 -0 -0 0 -0 -0 0 0 0 0 0 0 0 0 0 0 0 0 0 0 0 0 0 0 0 0 0 0 0 0 0 0 0 0 -0 -0 -0 -0 -0 -0 -0 -0 -0 -0 -0 -0 0 0 0 0
-0 -0 -0 0 -0 -0 -0 -0 -0 -0 0 0 0 0 0 0 0 0 0 0 0 0 0 0 0 0 0 0 0 0 0 0 0 0 0 0 0 0 -0 -0 -0 -0 -0 -0 -0 -0 -0 -0 -0 -0 -0 -0 -0 -0
-0 -0 0 -0 -0 -0 0 0 0 0 0 0 0 0 0 0 -0 0 0 0 0 0 -0 -0 -0 -0 -0 -0 -0 -0 0 0 0 0 0 0 0 0 0 -0 -0 -0 -0 -0 -0 -0 -0 -0 -0 -0 -0 0 0 0
-0 0 -0 -0 -0 -0 -0 0 0 0 0 0 0 0 0 0 0 0 0 0 -0 -0 -0 -0 0 0 -0 -0 0 0 0 0 -0 0 0 0 -0 -0 0 0 -0 -0 -0 -0 -0 -0 -0 0 -0 -0 -0 -0 -0 -0
0 0 -0 -0 -0 0 -0 0 0 0 0 0 0 0 0 0 0 0 0 0 -0 -0 0 0 0 0 -0 0 0 0 -0 -0 0 0 0 -0 -0 0 0 0 0 -0 -0 -0 -0 -0 -0 -0 -0 -0 -0 -0 -0 -0
-0 -0 -0 -0 -0 0 -0 0 0 0 0 0 0 0 0 0 0 0 -0 0 -0 0 -0 0 0 0 -0 0 0 0 0 0 -0 0 0 0 -0 -0 0 0 -0 -0 -0 -0 -0 -0 0 -0 -0 -0 -0 -0 -0 0
-0 -0 -0 -0 -0 0 -0 0 0 0 0 0 0 0 -0 -0 0 -0 0 0 -0 -0 -0 0 0 0 0 0 0 0 0 -0 -0 -0 0 0 0 -0 0 0 0 0 -0 -0 -0 -0 -0 -0 -0 -0 -0 -0 -0 0
0 0 0 0 -0 -0 -0 0 0 0 0 0 0 0 0 0 -0 0 -0 0 -0 -0 0 0 0 0 0 0 0 -0 -0 -0 0 -0 0 0 0 0 0 0 0 0 0 -0 -0 0 0 0 0 0 0 0 0 0
0 0 0 0 0 0 -0 -0 -0 0 0 0 0 0 0 0 -0 0 0 -0 -0 -0 0 0 0 0 0 0 -0 -0 -0 0 0 0 -0 -0 0 0 0 0 0 0 0 0 0 0 0 0 0 0 0 0 0 0
0 0 0 0 0 -0 -0 -0 0 -0 0 0 0 0 0 0 0 0 -0 -0 -0 -0 0 0 0 0 0 -0 -0 0 0 0 0 0 0 0 -0 -0 0 0 0 0 0 0 0 0 0 0 0 0 0 0 0 0
0 0 0 0 -0 -0 0 0 0 0 0 0 0 0 -0 -0 -0 -0 -0 -0 -0 -0 0 0 0 0 -0 -0 -0 0 0 0 0 0 -0 0 0 0 0 0 0 0 0 0 0 0 0 0 0 0 0 0 0 0
0 0 -0 -0 -0 -0 0 0 0 0 0 0 0 0 -0 -0 -0 -0 -0 -0 0 0 0 0 0 0 0 0 -0 -0 -0 0 0 -0 -0 -0 -0 0 0 0 0 0 0 -0 0 0 0 0 0 0 0 0 0 0
0 -0 -0 -0 0 -0 0 0 0 0 0 0 0 0 0 -0 -0 -0 -0 -0 -0 0 0 0 0 0 0 -0 -0 -0 -0 0 -0 0 0 0 0 -0 -0 -0 -0 0 0 0 0 0 0 0 0 0 0 0 0 0
0 0 -0 0 0 0 0 0 0 0 0 0 0 -0 0 -0 -0 -0 0 -0 -0 0 0 0 0 0 0 -0 0 -0 0 0 0 0 0 0 0 0 -0 -0 -0 0 0 0 0 0 0 0 0 0 0 0 0 0
0 0 0 0 0 0 0 0 0 0 0 0 -0 -0 -0 -0 -0 -0 -0 -0 -0 0 0 0 0 0 0 -0 -0 -0 -0 -0 -0 -0 -0 -0 -0 -0 -0 0 0 0 0 0 0 0 0 0 0 0 0 0 0 0
0 0 0 0 0 0 0 -0 -0 -0 -0 -0 -0 -0 -0 -0 -0 -0 0 0 -0 0 0 0 0 0 0 0 0 -0 0 -0 -0 -0 -0 -0 0 0 0 0 0 0 0 0 0 0 0 0 0 0 0 0 0 0
0 0 0 0 0 0 0 -0 -0 -0 -0 -0 -0 -0 -0 -0 -0 0 0 0 0 0 0 0 0 0 0 0 0 0 0 0 0 -0 0 0 0 0 0 0 0 0 0 0 0 0 0 0 0 0 0 0 0 0
0 0 0 0 0 0 0 0 0 0 -0 -0 -0 -0 -0 0 0 0 0 0 0 0 0 0 0 0 0 0 0 0 0 0 0 0 0 0 0 0 0 0 0 0 0 0 0 0 0 0 0 0 0 0 0 0
0 0 0 -0 -0 0 0 -0 -0 -0 -0 -0 -0 0 0 0 0 0 0 0 0 0 0 0 0 0 0 0 0 0 0 0 0 0 0 0 0 0 0 0 0 0 0 0 0 0 0 0 0 0 0 0 0 0
0 0 0 0 0 -0 -0 -0 -0 -0 -0 -0 0 0 0 0 0 0 0 0 0 0 0 0 0 0 0 0 0 0 0 0 0 0 0 0 0 0 0 0 0 0 0 0 0 0 0 0 0 0 0 0 0 0
Wind_Speed_500mb
58 55 53 50 47 46 44 39 39 41 42 42 37 35 34 35 34 28 30 24 24 13 22 26 30 15 9 2 5 4 2 5 6 6 5 3 3 2 2 7 11 9 10 6 6 4 12 3 6 5 7 13 27 22
56 55 52 52 50 44 45 44 38 38 39 42 39 39 38 33 30 32 32 23 25 19 13 21 24 19 26 16 4 3 2 2 4 6 1 4 3 4 2 4 7 5 10 9 12 9 7 5 5 7 13 26 17 22
56 51 51 53 55 42 45 45 39 37 39 38 39 40 42 29 34 26 30 26 23 14 18 21 21 6 23 35 29 6 5 6 5 6 6 3 5 4 4 3 2 6 10 2 2 5 7 10 9 16 21 23 24 11
49 49 53 55 46 42 44 47 42 38 37 40 42 39 39 32 33 22 27 24 17 10 6 8 7 2 7 9 23 32 5 11 14 8 6 4 4 6 4 4 3 3 8 7 3 8 12 11 19 18 25 28 17 21
47 54 62 50 36 39 41 45 43 40 42 41 44 38 37 31 28 25 28 31 26 12 5 16 14 11 3 6 19 27 15 15 11 6 4 3 4 3 2 2 6 8 10 8 9 21 16 9 26 23 23 27 21 12
51 58 53 36 38 39 41 43 42 36 36 40 40 36 31 26 24 24 10 1 19 27 5 4 7 4 7 15 20 22 16 14 7 6 3 2 1 4 1 4 12 21 22 24 10 14 23 9 32 25 25 26 18 10
52 49 38 39 40 41 41 43 43 36 37 38 36 30 29 27 27 16 11 13 9 21 5 3 2 6 23 26 18 14 12 10 7 5 3 2 2 5 3 5 11 8 6 8 8 23 10 25 27 25 30 28 18 14
43 34 39 38 38 40 43 44 38 27 38 36 32 27 26 27 15 8 11 5 10 12 6 1 2 2 14 6 7 7 7 5 4 4 3 3 1 2 8 19 38 31 18 10 12 11 4 21 34 41 32 24 18 16
37 35 37 38 39 40 42 39 33 26 35 33 31 22 10 11 12 11 6 7 6 4 1 0 2 2 7 7 7 6 5 3 4 4 3 8 5 9 13 17 18 15 10 18 23 16 25 43 49 41 29 19 13 18
36 36 37 39 40 42 42 33 28 28 35 26 21 10 9 17 8 12 6 5 7 6 4 2 3 2 3 5 5 3 3 2 0 4 6 5 7 38 29 17 9 8 8 19 23 31 39 46 44 33 21 15 11 16
32 37 40 41 38 41 34 28 24 31 19 17 17 9 18 14 11 8 6 5 5 3 1 2 1 2 6 3 4 0 1 2 3 3 3 4 6 8 4 23 22 15 21 14 9 22 37 44 40 28 17 13 14 14
35 35 38 36 35 34 29 20 19 22 19 18 16 12 11 8 6 5 3 1 2 2 5 5 2 5 4 6 5 2 1 0 4 9 4 5 7 17 15 23 22 23 30 16 17 33 36 30 30 24 21 20 16 14
33 39 36 35 28 27 24 9 12 14 18 13 7 7 8 3 4 4 5 2 3 3 9 8 4 3 3 5 3 3 3 5 6 4 5 7 10 8 25 36 34 31 21 29 31 33 37 33 27 23 26 24 19 18
35 38 33 24 29 30 20 12 7 11 8 7 9 8 0 5 5 3 3 4 8 5 9 16 8 3 3 3 1 3 5 2 5 5 8 5 10 29 42 50 37 35 37 40 44 40 34 32 34 30 29 26 24 24
33 36 15 20 26 18 10 4 9 5 6 4 4 5 5 11 17 16 24 13 7 8 21 10 6 5 2 2 2 1 2 6 6 7 5 16 28 42 41 35 42 43 45 45 40 34 33 34 34 32 27 24 25 26
30 17 8 18 23 8 4 4 4 5 5 4 5 7 14 16 10 8 7 5 5 18 9 5 3 3 4 3 5 8 3 8 6 1 7 31 43 46 39 46 42 42 42 38 34 33 32 31 30 27 23 16 15 17
18 8 15 16 18 13 3 1 3 3 5 5 7 19 28 26 17 9 3 2 7 6 1 1 4 3 5 4 6 6 7 4 17 27 32 49 48 28 41 40 44 46 42 40 40 37 35 32 27 22 20 19 13 9
18 16 9 12 15 8 6 6 4 4 6 9 9 17 14 22 20 14 4 5 5 3 3 3 4 5 5 5 4 3 4 4 22 21 28 26 32 40 41 44 44 43 41 38 33 30 27 25 23 21 18 17 15 8
21 15 10 7 9 6 4 4 3 5 9 13 19 21 20 18 10 11 5 11 3 4 4 4 4 4 3 5 10 23 14 20 14 15 36 39 41 47 42 40 40 38 35 34 28 25 23 21 17 15 14 13 12 11
10 7 7 8 6 5 4 5 5 7 8 8 17 16 17 14 7 3 6 7 6 2 2 3 4 7 9 30 30 11 12 20 27 38 39 37 36 37 39 38 37 35 33 31 29 25 24 24 22 13 9 8 8 11
5 1 2 8 5 7 6 5 7 9 12 10 16 15 9 5 6 5 5 9 3 2 3 8 18 32 31 3 20 11 11 32 44 42 43 41 37 34 37 34 30 28 28 30 26 23 17 15 19 12 5 7 10 8
2 2 5 7 4 4 8 8 9 10 9 13 15 6 7 4 5 7 5 6 3 3 6 16 29 25 11 10 10 5 16 35 29 32 38 37 36 34 32 27 25 25 21 21 20 19 17 18 15 10 4 6 8 5
8 4 2 6 4 6 7 8 7 6 4 6 10 5 4 1 4 9 2 4 1 10 15 20 18 17 4 21 12 11 18 29 36 33 33 31 29 27 27 25 23 24 24 21 12 14 20 17 13 6 3 4 5 6
4 4 4 5 8 7 6 6 8 6 6 4 3 5 2 4 5 5 2 3 7 14 18 14 5 5 18 21 21 16 21 27 34 34 29 28 25 27 26 29 30 18 19 17 18 23 20 16 11 6 4 7 11 9
5 6 5 8 8 6 6 4 4 1 5 4 4 2 2 3 1 1 1 3 10 16 17 10 8 13 11 16 14 15 27 28 29 32 27 21 16 25 25 24 29 28 19 19 25 24 19 13 8 7 8 9 6 2
7 10 11 6 5 6 5 3 0 3 4 4 2 5 3 1 1 0 2 4 7 12 13 11 8 13 7 9 17 32 31 29 21 14 12 19 23 25 30 32 32 31 28 22 16 20 14 9 9 7 8 7 3 7
5 7 13 12 8 7 6 4 2 2 4 3 5 5 2 4 2 2 2 2 5 15 5 6 9 6 8 16 24 27 28 29 27 23 32 27 26 25 24 22 32 31 30 21 12 3 6 6 6 5 3 3 5 10
9 7 7 3 8 9 3 1 2 2 3 7 10 3 4 3 1 4 4 2 8 10 6 15 10 9 9 18 26 32 33 30 42 31 36 30 29 20 18 19 23 23 22 15 7 3 2 1 2 3 1 4 11 15
10 10 12 6 6 4 4 6 5 5 3 2 3 3 1 5 8 8 4 5 7 11 15 20 23 25 23 21 23 24 24 24 35 40 36 34 32 29 27 28 28 14 13 6 3 2 1 1 1 1 6 11 13 14
10 16 8 8 6 6 4 5 5 7 4 6 5 5 7 11 12 11 8 2 2 5 16 25 33 27 33 24 15 14 18 20 18 16 33 38 37 37 29 18 10 14 3 4 6 3 2 2 4 7 8 7 7 10
6 12 6 4 4 3 3 8 8 6 6 8 10 10 9 10 11 12 16 10 6 9 16 19 22 31 29 23 21 21 27 21 20 18 21 27 28 29 20 17 9 4 5 4 5 3 3 5 4 3 4 5 7 9
9 10 11 7 5 6 5 4 5 6 8 9 8 10 7 5 7 7 23 23 20 17 19 19 19 26 24 22 15 13 17 22 24 19 24 26 28 26 13 6 6 6 5 5 5 5 3 2 2 2 2 4 6 10
7 8 5 7 6 6 9 7 5 5 8 7 11 13 12 7 8 7 11 35 26 24 19 28 29 26 22 15 7 7 13 18 22 24 25 19 15 13 8 7 4 4 3 4 3 2 2 2 1 0 2 5 8 12
Wind_Direction_500mb
327 327 328 326 329 328 327 321 323 330 330 331 325 314 313 305 303 307 313 299 296 259 271 277 284 284 293 209 156 222 12 334 39 70 115 208 146 352 285 119 159 150 161 175 141 165 267 11 333 190 203 136 139 129
330 330 330 333 327 327 327 320 313 315 326 330 327 320 312 308 300 287 299 317 284 296 270 283 280 265 246 253 296 202 170 173 154 87 49 97 60 341 41 180 61 165 175 182 173 210 237 323 212 137 137 138 132 121
330 326 331 331 329 330 326 324 309 312 318 321 327 322 317 316 309 282 283 304 321 285 293 267 271 285 239 236 234 217 202 157 129 101 140 111 87 150 121 225 280 208 167 115 60 1 247 201 155 161 147 137 124 95
330 331 326 327 326 329 329 323 317 305 311 318 321 317 321 314 311 292 271 279 244 299 283 282 337 47 331 211 220 201 180 153 133 104 83 104 125 184 203 261 313 24 137 125 275 301 320 231 196 155 148 148 160 137
329 328 325 327 328 325 325 327 324 313 316 320 321 319 321 316 315 298 279 266 240 230 302 308 313 360 211 146 167 193 196 157 131 83 70 189 133 131 284 105 243 202 186 164 220 211 187 238 194 187 164 151 138 123
329 326 331 333 326 326 326 329 323 320 320 325 324 326 326 326 320 327 313 58 206 215 260 298 341 355 139 156 147 153 158 163 101 109 173 148 158 121 174 259 255 232 221 231 225 241 195 158 160 164 165 156 144 116
325 331 336 329 329 329 326 324 317 319 328 324 325 329 328 320 325 291 289 298 74 196 237 281 280 122 145 131 116 107 100 91 85 80 64 44 16 175 234 237 258 139 103 74 202 156 150 163 167 171 166 156 143 117
332 339 332 327 326 328 325 324 326 319 332 331 332 331 322 313 321 359 32 6 103 164 199 275 0 227 157 100 81 83 76 79 116 151 174 193 75 157 251 239 249 268 296 280 218 208 222 175 160 158 156 145 141 131
335 334 327 327 329 329 329 330 328 323 329 323 324 339 348 8 358 5 75 81 127 79 126 335 355 64 137 78 92 92 140 123 160 199 237 145 203 225 229 239 248 241 187 168 147 157 163 161 153 146 142 139 142 145
326 322 326 324 325 326 329 332 330 330 329 334 358 3 359 343 66 342 34 19 44 34 43 35 11 50 57 94 47 73 10 89 280 229 153 210 254 251 249 244 291 186 211 179 139 125 149 148 146 140 133 124 129 144
319 320 323 322 321 328 330 331 336 341 340 0 2 354 331 335 339 6 13 36 1 23 88 313 314 21 49 116 103 33 163 144 269 153 233 230 260 261 304 233 240 170 164 139 150 180 171 158 152 141 142 144 137 143
320 326 325 324 322 326 326 323 337 355 341 346 336 326 334 354 359 358 348 81 236 279 197 161 247 172 26 88 85 164 235 235 272 140 234 253 253 298 265 181 166 153 161 168 171 161 159 154 150 141 139 139 135 127
317 320 317 324 335 336 325 284 324 340 337 336 345 336 359 346 343 308 349 336 307 241 174 154 86 86 107 78 76 118 261 233 127 232 243 234 295 103 130 144 144 131 144 147 156 154 142 138 140 137 131 126 113 114
318 321 318 332 348 346 326 256 281 335 332 356 345 318 243 283 254 264 249 332 286 305 162 137 110 88 100 83 120 217 239 36 244 231 235 258 169 141 142 140 140 153 145 141 142 139 136 136 134 122 117 113 100 90
318 324 328 347 344 327 331 249 278 316 347 334 309 281 250 273 277 265 296 266 259 183 147 107 109 124 122 146 227 299 239 251 233 241 232 174 152 149 145 149 146 144 143 141 139 136 137 140 140 131 120 108 92 84
325 335 351 335 1 344 346 217 223 304 312 271 256 272 273 279 307 294 301 124 135 131 95 115 136 170 166 188 183 211 239 234 257 244 143 152 146 137 156 147 145 145 142 137 136 135 137 141 138 137 141 128 109 82
324 320 335 334 11 12 14 259 323 294 283 277 267 272 275 282 275 296 347 187 166 153 94 139 202 203 129 197 219 202 223 279 289 257 173 149 150 166 152 147 147 145 138 135 135 132 130 133 130 129 135 156 155 94
300 302 292 328 332 332 286 275 291 293 273 271 281 295 299 293 290 325 300 146 164 187 183 236 293 227 239 228 205 177 2 74 101 80 152 175 161 158 157 151 149 147 140 140 144 149 148 144 136 128 123 146 163 127
297 263 248 289 306 324 320 294 263 285 267 288 282 299 300 305 296 329 263 185 225 302 279 293 253 250 271 309 310 303 179 184 173 120 147 160 163 154 148 142 146 148 147 148 142 137 152 156 145 128 118 133 152 136
281 268 245 252 232 276 271 262 237 265 277 292 281 288 300 297 290 257 169 167 316 269 262 251 275 294 249 300 314 190 153 150 144 127 127 138 149 148 146 146 148 149 150 147 139 137 139 146 160 151 133 125 158 150
196 301 311 190 242 275 275 279 249 254 288 273 289 301 292 267 245 207 228 218 247 218 275 271 284 320 340 57 117 142 179 158 150 151 154 151 150 150 146 146 145 148 160 168 164 159 162 159 164 161 128 132 168 160
151 192 166 213 283 251 267 247 252 285 271 277 297 284 278 269 234 204 189 196 255 235 260 309 331 338 10 162 154 70 160 164 160 161 154 153 149 150 151 149 154 164 169 174 183 180 174 156 157 158 130 131 168 174
138 214 246 214 265 247 263 245 255 235 252 285 306 277 249 254 329 160 211 179 227 345 320 319 312 315 220 180 170 124 149 168 166 156 149 147 149 155 161 166 175 160 152 150 162 170 161 158 163 166 126 143 207 232
207 230 246 232 219 268 264 243 223 260 278 287 262 262 174 13 159 358 38 33 357 332 341 312 313 3 157 160 156 119 154 157 157 155 156 158 163 163 170 167 170 168 161 147 152 169 171 172 181 197 201 198 203 220
211 229 221 249 232 235 239 247 218 263 261 250 274 217 183 150 298 231 33 10 344 351 339 131 87 69 139 180 186 169 166 166 159 159 165 180 189 164 157 158 168 169 178 172 174 181 181 189 202 204 195 197 203 283
236 205 198 243 227 205 238 263 347 294 276 276 314 350 319 198 272 64 61 339 345 353 11 137 84 110 148 191 162 168 171 164 148 179 176 166 160 166 169 170 177 184 188 193 183 188 187 201 216 210 192 198 254 324
258 247 228 234 249 273 281 281 207 248 287 343 353 327 312 249 203 94 302 248 340 2 180 121 86 119 140 167 169 170 164 167 202 175 157 168 183 181 185 186 196 192 186 182 177 191 310 269 242 221 214 221 302 332
248 257 227 262 223 231 246 143 344 346 9 338 311 322 325 318 322 311 271 248 320 313 228 210 126 145 143 156 158 171 170 179 171 180 181 190 188 200 207 188 175 167 163 177 208 260 312 276 175 174 213 326 342 351
241 234 213 224 200 250 206 192 198 202 216 238 296 306 304 275 273 267 236 334 298 282 207 181 151 161 144 125 123 146 149 175 182 179 190 179 171 154 160 160 144 164 186 178 139 11 81 93 107 358 344 344 348 352
249 205 222 179 174 195 221 215 219 228 249 242 250 267 281 308 313 256 201 67 23 139 172 188 203 186 160 164 184 211 195 187 197 222 199 166 156 150 153 174 200 158 195 259 338 359 196 292 317 319 326 341 355 3
252 185 153 109 145 207 253 255 262 226 224 239 247 259 280 310 303 260 202 173 159 136 154 145 157 173 181 162 174 169 165 174 175 171 173 176 178 178 189 157 172 187 207 285 308 288 273 280 292 324 350 7 11 3
201 187 149 183 217 205 228 223 248 241 230 216 231 231 254 259 268 238 201 190 196 185 170 169 154 147 149 158 167 202 209 212 208 194 189 185 186 187 174 158 200 226 262 263 253 249 248 291 321 326 346 4 9 12
158 162 160 144 153 194 216 209 241 258 238 236 234 230 229 217 254 232 212 193 189 195 192 188 189 176 172 178 214 198 174 169 169 167 176 178 157 170 184 169 201 213 231 233 229 219 211 212 221 69 35 25 22 18
Wind_Speed_850mb
58 55 53 50 47 46 44 39 39 41 42 42 37 35 34 35 34 28 30 24 24 13 22 26 30 15 9 2 5 4 2 5 6 6 5 3 3 2 2 7 11 9 10 6 6 4 12 3 6 5 7 13 27 22
56 55 52 52 50 44 45 44 38 38 39 42 39 39 38 33 30 32 32 23 25 19 13 21 24 19 26 16 4 3 2 2 4 6 1 4 3 4 2 4 7 5 10 9 12 9 7 5 5 7 13 26 17 22
56 51 51 53 55 42 45 45 39 37 39 38 39 40 42 29 34 26 30 26 23 14 18 21 21 6 23 35 29 6 5 6 5 6 6 3 5 4 4 3 2 6 10 2 2 5 7 10 9 16 21 23 24 11
49 49 53 55 46 42 44 47 42 38 37 40 42 39 39 32 33 22 27 24 17 10 6 8 7 2 7 9 23 32 5 11 14 8 6 4 4 6 4 4 3 3 8 7 3 8 12 11 19 18 25 28 17 21
47 54 62 50 36 39 41 45 43 40 42 41 44 38 37 31 28 25 28 31 26 12 5 16 14 11 3 6 19 27 15 15 11 6 4 3 4 3 2 2 6 8 10 8 9 21 16 9 26 23 23 27 21 12
51 58 53 36 38 39 41 43 42 36 36 40 40 36 31 26 24 24 10 1 19 27 5 4 7 4 7 15 20 22 16 14 7 6 3 2 1 4 1 4 12 21 22 24 10 14 23 9 32 25 25 26 18 10
52 49 38 39 40 41 41 43 43 36 37 38 36 30 29 27 27 16 11 13 9 21 5 3 2 6 23 26 18 14 12 10 7 5 3 2 2 5 3 5 11 8 6 8 8 23 10 25 27 25 30 28 18 14
43 34 39 38 38 40 43 44 38 27 38 36 32 27 26 27 15 8 11 5 10 12 6 1 2 2 14 6 7 7 7 5 4 4 3 3 1 2 8 19 38 31 18 10 12 11 4 21 34 41 32 24 18 16
37 35 37 38 39 40 42 39 33 26 35 33 31 22 10 11 12 11 6 7 6 4 1 0 2 2 7 7 7 6 5 3 4 4 3 8 5 9 13 17 18 15 10 18 23 16 25 43 49 41 29 19 13 18
36 36 37 39 40 42 42 33 28 28 35 26 21 10 9 17 8 12 6 5 7 6 4 2 3 2 3 5 5 3 3 2 0 4 6 5 7 38 29 17 9 8 8 19 23 31 39 46 44 33 21 15 11 16
32 37 40 41 38 41 34 28 24 31 19 17 17 9 18 14 11 8 6 5 5 3 1 2 1 2 6 3 4 0 1 2 3 3 3 4 6 8 4 23 22 15 21 14 9 22 37 44 40 28 17 13 14 14
35 35 38 36 35 34 29 20 19 22 19 18 16 12 11 8 6 5 3 1 2 2 5 5 2 5 4 6 5 2 1 0 4 9 4 5 7 17 15 23 22 23 30 16 17 33 36 30 30 24 21 20 16 14
33 39 36 35 28 27 24 9 12 14 18 13 7 7 8 3 4 4 5 2 3 3 9 8 4 3 3 5 3 3 3 5 6 4 5 7 10 8 25 36 34 31 21 29 31 33 37 33 27 23 26 24 19 18
35 38 33 24 29 30 20 12 7 11 8 7 9 8 0 5 5 3 3 4 8 5 9 16 8 3 3 3 1 3 5 2 5 5 8 5 10 29 42 50 37 35 37 40 44 40 34 32 34 30 29 26 24 24
33 36 15 20 26 18 10 4 9 5 6 4 4 5 5 11 17 16 24 13 7 8 21 10 6 5 2 2 2 1 2 6 6 7 5 16 28 42 41 35 42 43 45 45 40 34 33 34 34 32 27 24 25 26
30 17 8 18 23 8 4 4 4 5 5 4 5 7 14 16 10 8 7 5 5 18 9 5 3 3 4 3 5 8 3 8 6 1 7 31 43 46 39 46 42 42 42 38 34 33 32 31 30 27 23 16 15 17
18 8 15 16 18 13 3 1 3 3 5 5 7 19 28 26 17 9 3 2 7 6 1 1 4 3 5 4 6 6 7 4 17 27 32 49 48 28 41 40 44 46 42 40 40 37 35 32 27 22 20 19 13 9
18 16 9 12 15 8 6 6 4 4 6 9 9 17 14 22 20 14 4 5 5 3 3 3 4 5 5 5 4 3 4 4 22 21 28 26 32 40 41 44 44 43 41 38 33 30 27 25 23 21 18 17 15 8
21 15 10 7 9 6 4 4 3 5 9 13 19 21 20 18 10 11 5 11 3 4 4 4 4 4 3 5 10 23 14 20 14 15 36 39 41 47 42 40 40 38 35 34 28 25 23 21 17 15 14 13 12 11
10 7 7 8 6 5 4 5 5 7 8 8 17 16 17 14 7 3 6 7 6 2 2 3 4 7 9 30 30 11 12 20 27 38 39 37 36 37 39 38 37 35 33 31 29 25 24 24 22 13 9 8 8 11
5 1 2 8 5 7 6 5 7 9 12 10 16 15 9 5 6 5 5 9 3 2 3 8 18 32 31 3 20 11 11 32 44 42 43 41 37 34 37 34 30 28 28 30 26 23 17 15 19 12 5 7 10 8
2 2 5 7 4 4 8 8 9 10 9 13 15 6 7 4 5 7 5 6 3 3 6 16 29 25 11 10 10 5 16 35 29 32 38 37 36 34 32 27 25 25 21 21 20 19 17 18 15 10 4 6 8 5
8 4 2 6 4 6 7 8 7 6 4 6 10 5 4 1 4 9 2 4 1 10 15 20 18 17 4 21 12 11 18 29 36 33 33 31 29 27 27 25 23 24 24 21 12 14 20 17 13 6 3 4 5 6
4 4 4 5 8 7 6 6 8 6 6 4 3 5 2 4 5 5 2 3 7 14 18 14 5 5 18 21 21 16 21 27 34 34 29 28 25 27 26 29 30 18 19 17 18 23 20 16 11 6 4 7 11 9
5 6 5 8 8 6 6 4 4 1 5 4 4 2 2 3 1 1 1 3 10 16 17 10 8 13 11 16 14 15 27 28 29 32 27 21 16 25 25 24 29 28 19 19 25 24 19 13 8 7 8 9 6 2
7 10 11 6 5 6 5 3 0 3 4 4 2 5 3 1 1 0 2 4 7 12 13 11 8 13 7 9 17 32 31 29 21 14 12 19 23 25 30 32 32 31 28 22 16 20 14 9 9 7 8 7 3 7
5 7 13 12 8 7 6 4 2 2 4 3 5 5 2 4 2 2 2 2 5 15 5 6 9 6 8 16 24 27 28 29 27 23 32 27 26 25 24 22 32 31 30 21 12 3 6 6 6 5 3 3 5 10
9 7 7 3 8 9 3 1 2 2 3 7 10 3 4 3 1 4 4 2 8 10 6 15 10 9 9 18 26 32 33 30 42 31 36 30 29 20 18 19 23 23 22 15 7 3 2 1 2 3 1 4 11 15
10 10 12 6 6 4 4 6 5 5 3 2 3 3 1 5 8 8 4 5 7 11 15 20 23 25 23 21 23 24 24 24 35 40 36 34 32 29 27 28 28 14 13 6 3 2 1 1 1 1 6 11 13 14
10 16 8 8 6 6 4 5 5 7 4 6 5 5 7 11 12 11 8 2 2 5 16 25 33 27 33 24 15 14 18 20 18 16 33 38 37 37 29 18 10 14 3 4 6 3 2 2 4 7 8 7 7 10
6 12 6 4 4 3 3 8 8 6 6 8 10 10 9 10 11 12 16 10 6 9 16 19 22 31 29 23 21 21 27 21 20 18 21 27 28 29 20 17 9 4 5 4 5 3 3 5 4 3 4 5 7 9
9 10 11 7 5 6 5 4 5 6 8 9 8 10 7 5 7 7 23 23 20 17 19 19 19 26 24 22 15 13 17 22 24 19 24 26 28 26 13 6 6 6 5 5 5 5 3 2 2 2 2 4 6 10
7 8 5 7 6 6 9 7 5 5 8 7 11 13 12 7 8 7 11 35 26 24 19 28 29 26 22 15 7 7 13 18 22 24 25 19 15 13 8 7 4 4 3 4 3 2 2 2 1 0 2 5 8 12
Wind_Direction_850mb
327 327 328 326 329 328 327 321 323 330 330 331 325 314 313 305 303 307 313 299 296 259 271 277 284 284 293 209 156 222 12 334 39 70 115 208 146 352 285 119 159 150 161 175 141 165 267 11 333 190 203 136 139 129
330 330 330 333 327 327 327 320 313 315 326 330 327 320 312 308 300 287 299 317 284 296 270 283 280 265 246 253 296 202 170 173 154 87 49 97 60 341 41 180 61 165 175 182 173 210 237 323 212 137 137 138 132 121
330 326 331 331 329 330 326 324 309 312 318 321 327 322 317 316 309 282 283 304 321 285 293 267 271 285 239 236 234 217 202 157 129 101 140 111 87 150 121 225 280 208 167 115 60 1 247 201 155 161 147 137 124 95
330 331 326 327 326 329 329 323 317 305 311 318 321 317 321 314 311 292 271 279 244 299 283 282 337 47 331 211 220 201 180 153 133 104 83 104 125 184 203 261 313 24 137 125 275 301 320 231 196 155 148 148 160 137
329 328 325 327 328 325 325 327 324 313 316 320 321 319 321 316 315 298 279 266 240 230 302 308 313 360 211 146 167 193 196 157 131 83 70 189 133 131 284 105 243 202 186 164 220 211 187 238 194 187 164 151 138 123
329 326 331 333 326 326 326 329 323 320 320 325 324 326 326 326 320 327 313 58 206 215 260 298 341 355 139 156 147 153 158 163 101 109 173 148 158 121 174 259 255 232 221 231 225 241 195 158 160 164 165 156 144 116
325 331 336 329 329 329 326 324 317 319 328 324 325 329 328 320 325 291 289 298 74 196 237 281 280 122 145 131 116 107 100 91 85 80 64 44 16 175 234 237 258 139 103 74 202 156 150 163 167 171 166 156 143 117
332 339 332 327 326 328 325 324 326 319 332 331 332 331 322 313 321 359 32 6 103 164 199 275 0 227 157 100 81 83 76 79 116 151 174 193 75 157 251 239 249 268 296 280 218 208 222 175 160 158 156 145 141 131
335 334 327 327 329 329 329 330 328 323 329 323 324 339 348 8 358 5 75 81 127 79 126 335 355 64 137 78 92 92 140 123 160 199 237 145 203 225 229 239 248 241 187 168 147 157 163 161 153 146 142 139 142 145
326 322 326 324 325 326 329 332 330 330 329 334 358 3 359 343 66 342 34 19 44 34 43 35 11 50 57 94 47 73 10 89 280 229 153 210 254 251 249 244 291 186 211 179 139 125 149 148 146 140 133 124 129 144
319 320 323 322 321 328 330 331 336 341 340 0 2 354 331 335 339 6 13 36 1 23 88 313 314 21 49 116 103 33 163 144 269 153 233 230 260 261 304 233 240 170 164 139 150 180 171 158 152 141 142 144 137 143
320 326 325 324 322 326 326 323 337 355 341 346 336 326 334 354 359 358 348 81 236 279 197 161 247 172 26 88 85 164 235 235 272 140 234 253 253 298 265 181 166 153 161 168 171 161 159 154 150 141 139 139 135 127
317 320 317 324 335 336 325 284 324 340 337 336 345 336 359 346 343 308 349 336 307 241 174 154 86 86 107 78 76 118 261 233 127 232 243 234 295 103 130 144 144 131 144 147 156 154 142 138 140 137 131 126 113 114
318 321 318 332 348 346 326 256 281 335 332 356 345 318 243 283 254 264 249 332 286 305 162 137 110 88 100 83 120 217 239 36 244 231 235 258 169 141 142 140 140 153 145 141 142 139 136 136 134 122 117 113 100 90
318 324 328 347 344 327 331 249 278 316 347 334 309 281 250 273 277 265 296 266 259 183 147 107 109 124 122 146 227 299 239 251 233 241 232 174 152 149 145 149 146 144 143 141 139 136 137 140 140 131 120 108 92 84
325 335 351 335 1 344 346 217 223 304 312 271 256 272 273 279 307 294 301 124 135 131 95 115 136 170 166 188 183 211 239 234 257 244 143 152 146 137 156 147 145 145 142 137 136 135 137 141 138 137 141 128 109 82
324 320 335 334 11 12 14 259 323 294 283 277 267 272 275 282 275 296 347 187 166 153 94 139 202 203 129 197 219 202 223 279 289 257 173 149 150 166 152 147 147 145 138 135 135 132 130 133 130 129 135 156 155 94
300 302 292 328 332 332 286 275 291 293 273 271 281 295 299 293 290 325 300 146 164 187 183 236 293 227 239 228 205 177 2 74 101 80 152 175 161 158 157 151 149 147 140 140 144 149 148 144 136 128 123 146 163 127
297 263 248 289 306 324 320 294 263 285 267 288 282 299 300 305 296 329 263 185 225 302 279 293 253 250 271 309 310 303 179 184 173 120 147 160 163 154 148 142 146 148 147 148 142 137 152 156 145 128 118 133 152 136
281 268 245 252 232 276 271 262 237 265 277 292 281 288 300 297 290 257 169 167 316 269 262 251 275 294 249 300 314 190 153 150 144 127 127 138 149 148 146 146 148 149 150 147 139 137 139 146 160 151 133 125 158 150
196 301 311 190 242 275 275 279 249 254 288 273 289 301 292 267 245 207 228 218 247 218 275 271 284 320 340 57 117 142 179 158 150 151 154 151 150 150 146 146 145 148 160 168 164 159 162 159 164 161 128 132 168 160
151 192 166 213 283 251 267 247 252 285 271 277 297 284 278 269 234 204 189 196 255 235 260 309 331 338 10 162 154 70 160 164 160 161 154 153 149 150 151 149 154 164 169 174 183 180 174 156 157 158 130 131 168 174
138 214 246 214 265 247 263 245 255 235 252 285 306 277 249 254 329 160 211 179 227 345 320 319 312 315 220 180 170 124 149 168 166 156 149 147 149 155 161 166 175 160 152 150 162 170 161 158 163 166 126 143 207 232
207 230 246 232 219 268 264 243 223 260 278 287 262 262 174 13 159 358 38 33 357 332 341 312 313 3 157 160 156 119 154 157 157 155 156 158 163 163 170 167 170 168 161 147 152 169 171 172 181 197 201 198 203 220
211 229 221 249 232 235 239 247 218 263 261 250 274 217 183 150 298 231 33 10 344 351 339 131 87 69 139 180 186 169 166 166 159 159 165 180 189 164 157 158 168 169 178 172 174 181 181 189 202 204 195 197 203 283
236 205 198 243 227 205 238 263 347 294 276 276 314 350 319 198 272 64 61 339 345 353 11 137 84 110 148 191 162 168 171 164 148 179 176 166 160 166 169 170 177 184 188 193 183 188 187 201 216 210 192 198 254 324
258 247 228 234 249 273 281 281 207 248 287 343 353 327 312 249 203 94 302 248 340 2 180 121 86 119 140 167 169 170 164 167 202 175 157 168 183 181 185 186 196 192 186 182 177 191 310 269 242 221 214 221 302 332
248 257 227 262 223 231 246 143 344 346 9 338 311 322 325 318 322 311 271 248 320 313 228 210 126 145 143 156 158 171 170 179 171 180 181 190 188 200 207 188 175 167 163 177 208 260 312 276 175 174 213 326 342 351
241 234 213 224 200 250 206 192 198 202 216 238 296 306 304 275 273 267 236 334 298 282 207 181 151 161 144 125 123 146 149 175 182 179 190 179 171 154 160 160 144 164 186 178 139 11 81 93 107 358 344 344 348 352
249 205 222 179 174 195 221 215 219 228 249 242 250 267 281 308 313 256 201 67 23 139 172 188 203 186 160 164 184 211 195 187 197 222 199 166 156 150 153 174 200 158 195 259 338 359 196 292 317 319 326 341 355 3
252 185 153 109 145 207 253 255 262 226 224 239 247 259 280 310 303 260 202 173 159 136 154 145 157 173 181 162 174 169 165 174 175 171 173 176 178 178 189 157 172 187 207 285 308 288 273 280 292 324 350 7 11 3
201 187 149 183 217 205 228 223 248 241 230 216 231 231 254 259 268 238 201 190 196 185 170 169 154 147 149 158 167 202 209 212 208 194 189 185 186 187 174 158 200 226 262 263 253 249 248 291 321 326 346 4 9 12
158 162 160 144 153 194 216 209 241 258 238 236 234 230 229 217 254 232 212 193 189 195 192 188 189 176 172 178 214 198 174 169 169 167 176 178 157 170 184 169 201 213 231 233 229 219 211 212 221 69 35 25 22 18